Year,Month,Day,Hour,Minute,Value (Times are PST for temperature in C)
2012,05,17,00,00,9.90
2012,05,17,00,01,9.90
2012,05,17,00,02,9.90
2012,05,17,00,03,9.90
2012,05,17,00,04,9.90
2012,05,17,00,05,9.90
2012,05,17,00,06,9.90
2012,05,17,00,07,9.90
2012,05,17,00,08,9.90
2012,05,17,00,09,9.90
2012,05,17,00,10,9.90
2012,05,17,00,11,9.90
2012,05,17,00,12,9.90
2012,05,17,00,13,9.90
2012,05,17,00,14,9.80
2012,05,17,00,15,9.80
2012,05,17,00,16,9.80
2012,05,17,00,17,9.80
2012,05,17,00,18,9.70
2012,05,17,00,19,9.70
2012,05,17,00,20,9.70
2012,05,17,00,21,9.70
2012,05,17,00,22,9.60
2012,05,17,00,23,9.60
2012,05,17,00,24,9.60
2012,05,17,00,25,9.50
2012,05,17,00,26,9.50
2012,05,17,00,27,9.40
2012,05,17,00,28,9.40
2012,05,17,00,29,9.30
2012,05,17,00,30,9.30
2012,05,17,00,31,9.20
2012,05,17,00,32,9.20
2012,05,17,00,33,9.20
2012,05,17,00,34,9.20
2012,05,17,00,35,9.10
2012,05,17,00,36,9.10
2012,05,17,00,37,9.00
2012,05,17,00,38,9.00
2012,05,17,00,39,9.00
2012,05,17,00,40,8.90
2012,05,17,00,41,8.90
2012,05,17,00,42,8.90
2012,05,17,00,43,8.80
2012,05,17,00,44,8.80
2012,05,17,00,45,8.80
2012,05,17,00,46,8.70
2012,05,17,00,47,8.70
2012,05,17,00,48,8.70
2012,05,17,00,49,8.70
2012,05,17,00,50,8.70
2012,05,17,00,51,8.70
2012,05,17,00,52,8.60
2012,05,17,00,53,8.60
2012,05,17,00,54,8.60
2012,05,17,00,55,8.60
2012,05,17,00,56,8.50
2012,05,17,00,57,8.50
2012,05,17,00,58,8.50
2012,05,17,00,59,8.50
2012,05,17,01,00,8.50
2012,05,17,01,01,8.40
2012,05,17,01,02,8.40
2012,05,17,01,03,8.40
2012,05,17,01,04,8.40
2012,05,17,01,05,8.40
2012,05,17,01,06,8.40
2012,05,17,01,07,8.30
2012,05,17,01,08,8.30
2012,05,17,01,09,8.30
2012,05,17,01,10,8.30
2012,05,17,01,11,8.20
2012,05,17,01,12,8.20
2012,05,17,01,13,8.20
2012,05,17,01,14,8.20
2012,05,17,01,15,8.20
2012,05,17,01,16,8.20
2012,05,17,01,17,8.20
2012,05,17,01,18,8.10
2012,05,17,01,19,8.10
2012,05,17,01,20,8.10
2012,05,17,01,21,8.00
2012,05,17,01,22,8.00
2012,05,17,01,23,8.00
2012,05,17,01,24,7.90
2012,05,17,01,25,7.90
2012,05,17,01,26,7.90
2012,05,17,01,27,8.00
2012,05,17,01,28,8.10
2012,05,17,01,29,8.20
2012,05,17,01,30,8.30
2012,05,17,01,31,8.40
2012,05,17,01,32,8.40
2012,05,17,01,33,8.50
2012,05,17,01,34,8.50
2012,05,17,01,35,8.50
2012,05,17,01,36,8.50
2012,05,17,01,37,8.50
2012,05,17,01,38,8.50
2012,05,17,01,39,8.50
2012,05,17,01,40,8.50
2012,05,17,01,41,8.40
2012,05,17,01,42,8.40
2012,05,17,01,43,8.40
2012,05,17,01,44,8.40
2012,05,17,01,45,8.30
2012,05,17,01,46,8.30
2012,05,17,01,47,8.30
2012,05,17,01,48,8.20
2012,05,17,01,49,8.20
2012,05,17,01,50,8.20
2012,05,17,01,51,8.20
2012,05,17,01,52,8.20
2012,05,17,01,53,8.10
2012,05,17,01,54,8.10
2012,05,17,01,55,8.10
2012,05,17,01,56,8.10
2012,05,17,01,57,8.10
2012,05,17,01,58,8.00
2012,05,17,01,59,8.00
2012,05,17,02,00,8.00
2012,05,17,02,01,8.00
2012,05,17,02,02,7.90
2012,05,17,02,03,7.90
2012,05,17,02,04,7.90
2012,05,17,02,05,7.90
2012,05,17,02,06,7.90
2012,05,17,02,07,7.90
2012,05,17,02,08,7.90
2012,05,17,02,09,7.90
2012,05,17,02,10,7.80
2012,05,17,02,11,7.80
2012,05,17,02,12,7.80
2012,05,17,02,13,7.80
2012,05,17,02,14,7.80
2012,05,17,02,15,7.80
2012,05,17,02,16,7.80
2012,05,17,02,17,7.80
2012,05,17,02,18,7.70
2012,05,17,02,19,7.70
2012,05,17,02,20,7.70
2012,05,17,02,21,7.60
2012,05,17,02,22,7.60
2012,05,17,02,23,7.60
2012,05,17,02,24,7.60
2012,05,17,02,25,7.50
2012,05,17,02,26,7.50
2012,05,17,02,27,7.50
2012,05,17,02,28,7.50
2012,05,17,02,29,7.50
2012,05,17,02,30,7.40
2012,05,17,02,31,7.40
2012,05,17,02,32,7.40
2012,05,17,02,33,7.30
2012,05,17,02,34,7.30
2012,05,17,02,35,7.30
2012,05,17,02,36,7.30
2012,05,17,02,37,7.30
2012,05,17,02,38,7.30
2012,05,17,02,39,7.30
2012,05,17,02,40,7.30
2012,05,17,02,41,7.30
2012,05,17,02,42,7.30
2012,05,17,02,43,7.30
2012,05,17,02,44,7.20
2012,05,17,02,45,7.20
2012,05,17,02,46,7.20
2012,05,17,02,47,7.20
2012,05,17,02,48,7.10
2012,05,17,02,49,7.10
2012,05,17,02,50,7.00
2012,05,17,02,51,7.00
2012,05,17,02,52,7.00
2012,05,17,02,53,7.00
2012,05,17,02,54,6.90
2012,05,17,02,55,6.90
2012,05,17,02,56,6.90
2012,05,17,02,57,6.80
2012,05,17,02,58,6.80
2012,05,17,02,59,6.80
2012,05,17,03,00,6.80
2012,05,17,03,01,6.80
2012,05,17,03,02,6.80
2012,05,17,03,03,6.80
2012,05,17,03,04,6.80
2012,05,17,03,05,6.80
2012,05,17,03,06,6.80
2012,05,17,03,07,6.70
2012,05,17,03,08,6.70
2012,05,17,03,09,6.70
2012,05,17,03,10,6.70
2012,05,17,03,11,6.70
2012,05,17,03,12,6.70
2012,05,17,03,13,6.70
2012,05,17,03,14,6.70
2012,05,17,03,15,6.70
2012,05,17,03,16,6.60
2012,05,17,03,17,6.60
2012,05,17,03,18,6.60
2012,05,17,03,19,6.60
2012,05,17,03,20,6.60
2012,05,17,03,21,6.60
2012,05,17,03,22,6.70
2012,05,17,03,23,6.70
2012,05,17,03,24,6.70
2012,05,17,03,25,6.70
2012,05,17,03,26,6.70
2012,05,17,03,27,6.70
2012,05,17,03,28,6.70
2012,05,17,03,29,6.70
2012,05,17,03,30,6.70
2012,05,17,03,31,6.70
2012,05,17,03,32,6.70
2012,05,17,03,33,6.60
2012,05,17,03,34,6.60
2012,05,17,03,35,6.60
2012,05,17,03,36,6.60
2012,05,17,03,37,6.60
2012,05,17,03,38,6.60
2012,05,17,03,39,6.60
2012,05,17,03,40,6.60
2012,05,17,03,41,6.60
2012,05,17,03,42,6.60
2012,05,17,03,43,6.60
2012,05,17,03,44,6.60
2012,05,17,03,45,6.60
2012,05,17,03,46,6.60
2012,05,17,03,47,6.60
2012,05,17,03,48,6.50
2012,05,17,03,49,6.40
2012,05,17,03,50,6.40
2012,05,17,03,51,6.40
2012,05,17,03,52,6.40
2012,05,17,03,53,6.40
2012,05,17,03,54,6.40
2012,05,17,03,55,6.40
2012,05,17,03,56,6.40
2012,05,17,03,57,6.30
2012,05,17,03,58,6.30
2012,05,17,03,59,6.30
2012,05,17,04,00,6.30
2012,05,17,04,01,6.30
2012,05,17,04,02,6.30
2012,05,17,04,03,6.30
2012,05,17,04,04,6.20
2012,05,17,04,05,6.20
2012,05,17,04,06,6.20
2012,05,17,04,07,6.20
2012,05,17,04,08,6.20
2012,05,17,04,09,6.20
2012,05,17,04,10,6.20
2012,05,17,04,11,6.20
2012,05,17,04,12,6.20
2012,05,17,04,13,6.20
2012,05,17,04,14,6.20
2012,05,17,04,15,6.20
2012,05,17,04,16,6.20
2012,05,17,04,17,6.20
2012,05,17,04,18,6.20
2012,05,17,04,19,6.30
2012,05,17,04,20,6.30
2012,05,17,04,21,6.30
2012,05,17,04,22,6.30
2012,05,17,04,23,6.30
2012,05,17,04,24,6.30
2012,05,17,04,25,6.30
2012,05,17,04,26,6.30
2012,05,17,04,27,6.30
2012,05,17,04,28,6.30
2012,05,17,04,29,6.30
2012,05,17,04,30,6.30
2012,05,17,04,31,6.30
2012,05,17,04,32,6.30
2012,05,17,04,33,6.30
2012,05,17,04,34,6.30
2012,05,17,04,35,6.20
2012,05,17,04,36,6.20
2012,05,17,04,37,6.20
2012,05,17,04,38,6.20
2012,05,17,04,39,6.20
2012,05,17,04,40,6.20
2012,05,17,04,41,6.20
2012,05,17,04,42,6.20
2012,05,17,04,43,6.20
2012,05,17,04,44,6.20
2012,05,17,04,45,6.10
2012,05,17,04,46,6.10
2012,05,17,04,47,6.00
2012,05,17,04,48,6.00
2012,05,17,04,49,6.00
2012,05,17,04,50,5.90
2012,05,17,04,51,5.90
2012,05,17,04,52,5.90
2012,05,17,04,53,5.80
2012,05,17,04,54,5.80
2012,05,17,04,55,5.80
2012,05,17,04,56,5.80
2012,05,17,04,57,5.80
2012,05,17,04,58,5.80
2012,05,17,04,59,5.80
2012,05,17,05,00,5.80
2012,05,17,05,01,5.80
2012,05,17,05,02,5.80
2012,05,17,05,03,5.80
2012,05,17,05,04,5.80
2012,05,17,05,05,5.80
2012,05,17,05,06,5.70
2012,05,17,05,07,5.70
2012,05,17,05,08,5.70
2012,05,17,05,09,5.70
2012,05,17,05,10,5.70
2012,05,17,05,11,5.70
2012,05,17,05,12,5.70
2012,05,17,05,13,5.70
2012,05,17,05,14,5.70
2012,05,17,05,15,5.70
2012,05,17,05,16,5.70
2012,05,17,05,17,5.70
2012,05,17,05,18,5.80
2012,05,17,05,19,5.80
2012,05,17,05,20,5.80
2012,05,17,05,21,5.70
2012,05,17,05,22,5.70
2012,05,17,05,23,5.70
2012,05,17,05,24,5.70
2012,05,17,05,25,5.70
2012,05,17,05,26,5.70
2012,05,17,05,27,5.70
2012,05,17,05,28,5.70
2012,05,17,05,29,5.70
2012,05,17,05,30,5.70
2012,05,17,05,31,5.70
2012,05,17,05,32,5.70
2012,05,17,05,33,5.70
2012,05,17,05,34,5.70
2012,05,17,05,35,5.60
2012,05,17,05,36,5.60
2012,05,17,05,37,5.60
2012,05,17,05,38,5.60
2012,05,17,05,39,5.60
2012,05,17,05,40,5.60
2012,05,17,05,41,5.60
2012,05,17,05,42,5.60
2012,05,17,05,43,5.60
2012,05,17,05,44,5.60
2012,05,17,05,45,5.60
2012,05,17,05,46,5.60
2012,05,17,05,47,5.60
2012,05,17,05,48,5.60
2012,05,17,05,49,5.60
2012,05,17,05,50,5.60
2012,05,17,05,51,5.60
2012,05,17,05,52,5.60
2012,05,17,05,53,5.60
2012,05,17,05,54,5.60
2012,05,17,05,55,5.60
2012,05,17,05,56,5.60
2012,05,17,05,57,5.60
2012,05,17,05,58,5.60
2012,05,17,05,59,5.60
2012,05,17,06,00,5.60
2012,05,17,06,01,5.60
2012,05,17,06,02,5.60
2012,05,17,06,03,5.60
2012,05,17,06,04,5.60
2012,05,17,06,05,5.60
2012,05,17,06,06,5.60
2012,05,17,06,07,5.60
2012,05,17,06,08,5.60
2012,05,17,06,09,5.60
2012,05,17,06,10,5.60
2012,05,17,06,11,5.70
2012,05,17,06,12,5.70
2012,05,17,06,13,5.70
2012,05,17,06,14,5.70
2012,05,17,06,15,5.70
2012,05,17,06,16,5.70
2012,05,17,06,17,5.80
2012,05,17,06,18,5.90
2012,05,17,06,19,5.90
2012,05,17,06,20,5.90
2012,05,17,06,21,6.00
2012,05,17,06,22,6.00
2012,05,17,06,23,6.00
2012,05,17,06,24,6.10
2012,05,17,06,25,6.20
2012,05,17,06,26,6.20
2012,05,17,06,27,6.20
2012,05,17,06,28,6.20
2012,05,17,06,29,6.30
2012,05,17,06,30,6.30
2012,05,17,06,31,6.40
2012,05,17,06,32,6.40
2012,05,17,06,33,6.40
2012,05,17,06,34,6.50
2012,05,17,06,35,6.60
2012,05,17,06,36,6.60
2012,05,17,06,37,6.60
2012,05,17,06,38,6.70
2012,05,17,06,39,6.70
2012,05,17,06,40,6.80
2012,05,17,06,41,6.80
2012,05,17,06,42,6.80
2012,05,17,06,43,6.80
2012,05,17,06,44,6.90
2012,05,17,06,45,7.00
2012,05,17,06,46,7.00
2012,05,17,06,47,7.10
2012,05,17,06,48,7.10
2012,05,17,06,49,7.10
2012,05,17,06,50,7.20
2012,05,17,06,51,7.20
2012,05,17,06,52,7.30
2012,05,17,06,53,7.30
2012,05,17,06,54,7.30
2012,05,17,06,55,7.30
2012,05,17,06,56,7.40
2012,05,17,06,57,7.40
2012,05,17,06,58,7.50
2012,05,17,06,59,7.50
2012,05,17,07,00,7.60
2012,05,17,07,01,7.60
2012,05,17,07,02,7.70
2012,05,17,07,03,7.70
2012,05,17,07,04,7.80
2012,05,17,07,05,7.80
2012,05,17,07,06,7.80
2012,05,17,07,07,7.90
2012,05,17,07,08,7.90
2012,05,17,07,09,8.00
2012,05,17,07,10,8.00
2012,05,17,07,11,8.10
2012,05,17,07,12,8.10
2012,05,17,07,13,8.20
2012,05,17,07,14,8.20
2012,05,17,07,15,8.20
2012,05,17,07,16,8.30
2012,05,17,07,17,8.40
2012,05,17,07,18,8.40
2012,05,17,07,19,8.50
2012,05,17,07,20,8.60
2012,05,17,07,21,8.70
2012,05,17,07,22,8.70
2012,05,17,07,23,8.70
2012,05,17,07,24,8.80
2012,05,17,07,25,8.90
2012,05,17,07,26,8.90
2012,05,17,07,27,9.00
2012,05,17,07,28,9.10
2012,05,17,07,29,9.20
2012,05,17,07,30,9.20
2012,05,17,07,31,9.30
2012,05,17,07,32,9.40
2012,05,17,07,33,9.50
2012,05,17,07,34,9.60
2012,05,17,07,35,9.60
2012,05,17,07,36,9.70
2012,05,17,07,37,9.80
2012,05,17,07,38,9.90
2012,05,17,07,39,9.90
2012,05,17,07,40,10.00
2012,05,17,07,41,10.20
2012,05,17,07,42,10.30
2012,05,17,07,43,10.50
2012,05,17,07,44,10.60
2012,05,17,07,45,10.60
2012,05,17,07,46,10.80
2012,05,17,07,47,10.90
2012,05,17,07,48,11.00
2012,05,17,07,49,11.10
2012,05,17,07,50,11.10
2012,05,17,07,51,11.20
2012,05,17,07,52,11.30
2012,05,17,07,53,11.40
2012,05,17,07,54,11.40
2012,05,17,07,55,11.40
2012,05,17,07,56,11.50
2012,05,17,07,57,11.60
2012,05,17,07,58,11.60
2012,05,17,07,59,11.70
2012,05,17,08,00,11.70
2012,05,17,08,01,11.80
2012,05,17,08,02,11.80
2012,05,17,08,03,11.80
2012,05,17,08,04,11.80
2012,05,17,08,05,11.90
2012,05,17,08,06,12.00
2012,05,17,08,07,12.00
2012,05,17,08,08,12.00
2012,05,17,08,09,12.10
2012,05,17,08,10,12.00
2012,05,17,08,11,12.00
2012,05,17,08,12,11.90
2012,05,17,08,13,11.80
2012,05,17,08,14,11.80
2012,05,17,08,15,11.80
2012,05,17,08,16,11.80
2012,05,17,08,17,11.80
2012,05,17,08,18,11.80
2012,05,17,08,19,11.80
2012,05,17,08,20,11.80
2012,05,17,08,21,11.80
2012,05,17,08,22,11.80
2012,05,17,08,23,11.80
2012,05,17,08,24,11.80
2012,05,17,08,25,11.90
2012,05,17,08,26,11.90
2012,05,17,08,27,12.00
2012,05,17,08,28,12.10
2012,05,17,08,29,12.20
2012,05,17,08,30,12.30
2012,05,17,08,31,12.20
2012,05,17,08,32,12.10
2012,05,17,08,33,12.00
2012,05,17,08,34,12.00
2012,05,17,08,35,12.00
2012,05,17,08,36,12.00
2012,05,17,08,37,12.00
2012,05,17,08,38,12.00
2012,05,17,08,39,12.10
2012,05,17,08,40,12.30
2012,05,17,08,41,12.30
2012,05,17,08,42,12.20
2012,05,17,08,43,12.10
2012,05,17,08,44,12.00
2012,05,17,08,45,12.00
2012,05,17,08,46,11.90
2012,05,17,08,47,11.90
2012,05,17,08,48,11.80
2012,05,17,08,49,11.80
2012,05,17,08,50,12.00
2012,05,17,08,51,12.00
2012,05,17,08,52,12.00
2012,05,17,08,53,12.00
2012,05,17,08,54,12.10
2012,05,17,08,55,12.20
2012,05,17,08,56,12.10
2012,05,17,08,57,12.10
2012,05,17,08,58,12.10
2012,05,17,08,59,12.10
2012,05,17,09,00,12.10
2012,05,17,09,01,12.10
2012,05,17,09,02,12.00
2012,05,17,09,03,12.00
2012,05,17,09,04,12.10
2012,05,17,09,05,12.10
2012,05,17,09,06,12.20
2012,05,17,09,07,12.40
2012,05,17,09,08,12.50
2012,05,17,09,09,12.60
2012,05,17,09,10,12.70
2012,05,17,09,11,12.70
2012,05,17,09,12,12.80
2012,05,17,09,13,12.60
2012,05,17,09,14,12.60
2012,05,17,09,15,12.50
2012,05,17,09,16,12.50
2012,05,17,09,17,12.50
2012,05,17,09,18,12.60
2012,05,17,09,19,12.60
2012,05,17,09,20,12.60
2012,05,17,09,21,12.70
2012,05,17,09,22,12.80
2012,05,17,09,23,12.80
2012,05,17,09,24,12.90
2012,05,17,09,25,12.90
2012,05,17,09,26,12.90
2012,05,17,09,27,12.90
2012,05,17,09,28,13.00
2012,05,17,09,29,13.10
2012,05,17,09,30,13.20
2012,05,17,09,31,13.20
2012,05,17,09,32,12.90
2012,05,17,09,33,12.80
2012,05,17,09,34,12.70
2012,05,17,09,35,12.80
2012,05,17,09,36,12.80
2012,05,17,09,37,12.90
2012,05,17,09,38,12.90
2012,05,17,09,39,12.80
2012,05,17,09,40,12.70
2012,05,17,09,41,12.50
2012,05,17,09,42,12.50
2012,05,17,09,43,12.50
2012,05,17,09,44,12.60
2012,05,17,09,45,12.60
2012,05,17,09,46,12.70
2012,05,17,09,47,12.70
2012,05,17,09,48,12.80
2012,05,17,09,49,12.80
2012,05,17,09,50,12.70
2012,05,17,09,51,12.80
2012,05,17,09,52,12.80
2012,05,17,09,53,12.80
2012,05,17,09,54,13.00
2012,05,17,09,55,13.20
2012,05,17,09,56,13.20
2012,05,17,09,57,13.20
2012,05,17,09,58,12.90
2012,05,17,09,59,12.70
2012,05,17,10,00,12.50
2012,05,17,10,01,12.40
2012,05,17,10,02,12.30
2012,05,17,10,03,12.30
2012,05,17,10,04,12.40
2012,05,17,10,05,12.40
2012,05,17,10,06,12.30
2012,05,17,10,07,12.40
2012,05,17,10,08,12.50
2012,05,17,10,09,12.50
2012,05,17,10,10,12.60
2012,05,17,10,11,12.60
2012,05,17,10,12,12.70
2012,05,17,10,13,12.80
2012,05,17,10,14,12.80
2012,05,17,10,15,12.80
2012,05,17,10,16,12.70
2012,05,17,10,17,12.60
2012,05,17,10,18,12.60
2012,05,17,10,19,12.60
2012,05,17,10,20,12.70
2012,05,17,10,21,12.80
2012,05,17,10,22,12.70
2012,05,17,10,23,12.70
2012,05,17,10,24,12.80
2012,05,17,10,25,12.80
2012,05,17,10,26,12.80
2012,05,17,10,27,12.90
2012,05,17,10,28,13.00
2012,05,17,10,29,12.80
2012,05,17,10,30,12.70
2012,05,17,10,31,12.60
2012,05,17,10,32,12.60
2012,05,17,10,33,12.80
2012,05,17,10,34,12.70
2012,05,17,10,35,12.70
2012,05,17,10,36,12.70
2012,05,17,10,37,12.80
2012,05,17,10,38,13.00
2012,05,17,10,39,13.10
2012,05,17,10,40,13.00
2012,05,17,10,41,12.80
2012,05,17,10,42,12.60
2012,05,17,10,43,12.60
2012,05,17,10,44,12.70
2012,05,17,10,45,12.60
2012,05,17,10,46,12.60
2012,05,17,10,47,12.70
2012,05,17,10,48,12.60
2012,05,17,10,49,12.70
2012,05,17,10,50,12.80
2012,05,17,10,51,13.00
2012,05,17,10,52,13.20
2012,05,17,10,53,13.30
2012,05,17,10,54,13.20
2012,05,17,10,55,13.20
2012,05,17,10,56,13.10
2012,05,17,10,57,12.90
2012,05,17,10,58,12.80
2012,05,17,10,59,12.80
2012,05,17,11,00,12.90
2012,05,17,11,01,13.00
2012,05,17,11,02,13.00
2012,05,17,11,03,13.00
2012,05,17,11,04,12.90
2012,05,17,11,05,13.10
2012,05,17,11,06,13.20
2012,05,17,11,07,13.10
2012,05,17,11,08,13.00
2012,05,17,11,09,12.80
2012,05,17,11,10,12.90
2012,05,17,11,11,13.00
2012,05,17,11,12,13.10
2012,05,17,11,13,13.10
2012,05,17,11,14,13.00
2012,05,17,11,15,12.90
2012,05,17,11,16,12.80
2012,05,17,11,17,12.70
2012,05,17,11,18,12.60
2012,05,17,11,19,12.70
2012,05,17,11,20,12.70
2012,05,17,11,21,12.70
2012,05,17,11,22,12.80
2012,05,17,11,23,12.80
2012,05,17,11,24,12.80
2012,05,17,11,25,12.80
2012,05,17,11,26,12.70
2012,05,17,11,27,12.70
2012,05,17,11,28,12.70
2012,05,17,11,29,12.70
2012,05,17,11,30,12.70
2012,05,17,11,31,12.80
2012,05,17,11,32,12.70
2012,05,17,11,33,12.70
2012,05,17,11,34,12.70
2012,05,17,11,35,12.80
2012,05,17,11,36,12.80
2012,05,17,11,37,12.90
2012,05,17,11,38,13.00
2012,05,17,11,39,13.00
2012,05,17,11,40,12.90
2012,05,17,11,41,13.00
2012,05,17,11,42,13.20
2012,05,17,11,43,13.30
2012,05,17,11,44,13.40
2012,05,17,11,45,13.50
2012,05,17,11,46,13.50
2012,05,17,11,47,13.50
2012,05,17,11,48,13.40
2012,05,17,11,49,13.30
2012,05,17,11,50,13.30
2012,05,17,11,51,13.20
2012,05,17,11,52,13.10
2012,05,17,11,53,13.20
2012,05,17,11,54,13.20
2012,05,17,11,55,13.20
2012,05,17,11,56,13.30
2012,05,17,11,57,13.30
2012,05,17,11,58,13.10
2012,05,17,11,59,13.00
2012,05,17,12,00,12.90
2012,05,17,12,01,13.00
2012,05,17,12,02,13.20
2012,05,17,12,03,13.40
2012,05,17,12,04,13.60
2012,05,17,12,05,13.70
2012,05,17,12,06,13.60
2012,05,17,12,07,13.30
2012,05,17,12,08,13.00
2012,05,17,12,09,13.00
2012,05,17,12,10,13.10
2012,05,17,12,11,13.30
2012,05,17,12,12,13.50
2012,05,17,12,13,13.70
2012,05,17,12,14,13.80
2012,05,17,12,15,14.10
2012,05,17,12,16,14.20
2012,05,17,12,17,14.20
2012,05,17,12,18,14.10
2012,05,17,12,19,14.00
2012,05,17,12,20,13.90
2012,05,17,12,21,13.70
2012,05,17,12,22,13.50
2012,05,17,12,23,13.40
2012,05,17,12,24,13.50
2012,05,17,12,25,13.50
2012,05,17,12,26,13.50
2012,05,17,12,27,13.60
2012,05,17,12,28,13.70
2012,05,17,12,29,13.70
2012,05,17,12,30,13.70
2012,05,17,12,31,13.60
2012,05,17,12,32,13.70
2012,05,17,12,33,13.80
2012,05,17,12,34,13.60
2012,05,17,12,35,13.50
2012,05,17,12,36,13.50
2012,05,17,12,37,13.70
2012,05,17,12,38,13.70
2012,05,17,12,39,13.80
2012,05,17,12,40,13.90
2012,05,17,12,41,13.90
2012,05,17,12,42,14.00
2012,05,17,12,43,14.00
2012,05,17,12,44,13.90
2012,05,17,12,45,13.70
2012,05,17,12,46,13.70
2012,05,17,12,47,13.70
2012,05,17,12,48,13.60
2012,05,17,12,49,13.70
2012,05,17,12,50,13.80
2012,05,17,12,51,13.70
2012,05,17,12,52,13.70
2012,05,17,12,53,13.70
2012,05,17,12,54,13.80
2012,05,17,12,55,13.90
2012,05,17,12,56,13.90
2012,05,17,12,57,14.00
2012,05,17,12,58,13.80
2012,05,17,12,59,13.90
2012,05,17,13,00,13.90
2012,05,17,13,01,14.00
2012,05,17,13,02,14.10
2012,05,17,13,03,14.30
2012,05,17,13,04,14.40
2012,05,17,13,05,14.40
2012,05,17,13,06,14.40
2012,05,17,13,07,14.10
2012,05,17,13,08,14.00
2012,05,17,13,09,14.00
2012,05,17,13,10,14.00
2012,05,17,13,11,14.10
2012,05,17,13,12,14.10
2012,05,17,13,13,14.20
2012,05,17,13,14,14.30
2012,05,17,13,15,14.20
2012,05,17,13,16,14.20
2012,05,17,13,17,14.20
2012,05,17,13,18,14.20
2012,05,17,13,19,14.30
2012,05,17,13,20,14.20
2012,05,17,13,21,14.10
2012,05,17,13,22,14.20
2012,05,17,13,23,14.30
2012,05,17,13,24,14.40
2012,05,17,13,25,14.60
2012,05,17,13,26,14.40
2012,05,17,13,27,14.20
2012,05,17,13,28,14.10
2012,05,17,13,29,14.00
2012,05,17,13,30,14.10
2012,05,17,13,31,14.20
2012,05,17,13,32,14.20
2012,05,17,13,33,14.40
2012,05,17,13,34,14.50
2012,05,17,13,35,14.60
2012,05,17,13,36,14.40
2012,05,17,13,37,14.20
2012,05,17,13,38,14.00
2012,05,17,13,39,14.20
2012,05,17,13,40,14.40
2012,05,17,13,41,14.40
2012,05,17,13,42,14.30
2012,05,17,13,43,14.30
2012,05,17,13,44,14.40
2012,05,17,13,45,14.50
2012,05,17,13,46,14.70
2012,05,17,13,47,14.70
2012,05,17,13,48,14.60
2012,05,17,13,49,14.50
2012,05,17,13,50,14.20
2012,05,17,13,51,14.00
2012,05,17,13,52,13.90
2012,05,17,13,53,13.90
2012,05,17,13,54,14.00
2012,05,17,13,55,14.10
2012,05,17,13,56,14.20
2012,05,17,13,57,14.20
2012,05,17,13,58,14.20
2012,05,17,13,59,14.30
2012,05,17,14,00,14.40
2012,05,17,14,01,14.60
2012,05,17,14,02,14.80
2012,05,17,14,03,14.70
2012,05,17,14,04,14.50
2012,05,17,14,05,14.40
2012,05,17,14,06,14.50
2012,05,17,14,07,14.60
2012,05,17,14,08,14.80
2012,05,17,14,09,14.80
2012,05,17,14,10,14.60
2012,05,17,14,11,14.40
2012,05,17,14,12,14.30
2012,05,17,14,13,14.40
2012,05,17,14,14,14.60
2012,05,17,14,15,14.80
2012,05,17,14,16,14.90
2012,05,17,14,17,15.00
2012,05,17,14,18,15.20
2012,05,17,14,19,15.40
2012,05,17,14,20,15.30
2012,05,17,14,21,15.00
2012,05,17,14,22,14.80
2012,05,17,14,23,14.70
2012,05,17,14,24,14.60
2012,05,17,14,25,14.60
2012,05,17,14,26,14.50
2012,05,17,14,27,14.50
2012,05,17,14,28,14.60
2012,05,17,14,29,14.70
2012,05,17,14,30,14.70
2012,05,17,14,31,14.70
2012,05,17,14,32,14.50
2012,05,17,14,33,14.30
2012,05,17,14,34,14.10
2012,05,17,14,35,14.10
2012,05,17,14,36,14.00
2012,05,17,14,37,14.10
2012,05,17,14,38,14.20
2012,05,17,14,39,14.30
2012,05,17,14,40,14.30
2012,05,17,14,41,14.40
2012,05,17,14,42,14.40
2012,05,17,14,43,14.50
2012,05,17,14,44,14.50
2012,05,17,14,45,14.70
2012,05,17,14,46,14.80
2012,05,17,14,47,14.70
2012,05,17,14,48,14.50
2012,05,17,14,49,14.50
2012,05,17,14,50,14.50
2012,05,17,14,51,14.60
2012,05,17,14,52,14.60
2012,05,17,14,53,14.30
2012,05,17,14,54,14.40
2012,05,17,14,55,14.40
2012,05,17,14,56,14.50
2012,05,17,14,57,14.40
2012,05,17,14,58,14.40
2012,05,17,14,59,14.50
2012,05,17,15,00,14.50
2012,05,17,15,01,14.40
2012,05,17,15,02,14.40
2012,05,17,15,03,14.40
2012,05,17,15,04,14.40
2012,05,17,15,05,14.30
2012,05,17,15,06,14.40
2012,05,17,15,07,14.50
2012,05,17,15,08,14.60
2012,05,17,15,09,14.80
2012,05,17,15,10,15.00
2012,05,17,15,11,15.20
2012,05,17,15,12,15.10
2012,05,17,15,13,14.90
2012,05,17,15,14,14.80
2012,05,17,15,15,14.80
2012,05,17,15,16,14.80
2012,05,17,15,17,14.90
2012,05,17,15,18,14.90
2012,05,17,15,19,14.90
2012,05,17,15,20,15.00
2012,05,17,15,21,15.10
2012,05,17,15,22,15.10
2012,05,17,15,23,15.00
2012,05,17,15,24,14.90
2012,05,17,15,25,14.80
2012,05,17,15,26,14.80
2012,05,17,15,27,14.70
2012,05,17,15,28,14.60
2012,05,17,15,29,14.70
2012,05,17,15,30,14.90
2012,05,17,15,31,14.90
2012,05,17,15,32,15.00
2012,05,17,15,33,15.30
2012,05,17,15,34,15.50
2012,05,17,15,35,15.50
2012,05,17,15,36,15.30
2012,05,17,15,37,15.20
2012,05,17,15,38,15.20
2012,05,17,15,39,15.00
2012,05,17,15,40,14.90
2012,05,17,15,41,14.80
2012,05,17,15,42,14.70
2012,05,17,15,43,14.80
2012,05,17,15,44,15.00
2012,05,17,15,45,15.10
2012,05,17,15,46,15.20
2012,05,17,15,47,15.20
2012,05,17,15,48,15.10
2012,05,17,15,49,15.10
2012,05,17,15,50,15.10
2012,05,17,15,51,15.10
2012,05,17,15,52,15.00
2012,05,17,15,53,14.90
2012,05,17,15,54,14.80
2012,05,17,15,55,14.60
2012,05,17,15,56,14.50
2012,05,17,15,57,14.50
2012,05,17,15,58,14.60
2012,05,17,15,59,14.50
2012,05,17,16,00,14.40
2012,05,17,16,01,14.50
2012,05,17,16,02,14.70
2012,05,17,16,03,14.80
2012,05,17,16,04,14.80
2012,05,17,16,05,14.80
2012,05,17,16,06,14.80
2012,05,17,16,07,14.80
2012,05,17,16,08,14.60
2012,05,17,16,09,14.60
2012,05,17,16,10,14.60
2012,05,17,16,11,14.60
2012,05,17,16,12,14.60
2012,05,17,16,13,14.60
2012,05,17,16,14,14.70
2012,05,17,16,15,14.80
2012,05,17,16,16,14.80
2012,05,17,16,17,14.80
2012,05,17,16,18,14.60
2012,05,17,16,19,14.60
2012,05,17,16,20,14.70
2012,05,17,16,21,14.60
2012,05,17,16,22,14.60
2012,05,17,16,23,14.70
2012,05,17,16,24,14.70
2012,05,17,16,25,14.70
2012,05,17,16,26,14.60
2012,05,17,16,27,14.50
2012,05,17,16,28,14.50
2012,05,17,16,29,14.40
2012,05,17,16,30,14.40
2012,05,17,16,31,14.50
2012,05,17,16,32,14.60
2012,05,17,16,33,14.70
2012,05,17,16,34,14.80
2012,05,17,16,35,14.80
2012,05,17,16,36,14.80
2012,05,17,16,37,14.80
2012,05,17,16,38,14.80
2012,05,17,16,39,14.90
2012,05,17,16,40,14.90
2012,05,17,16,41,14.90
2012,05,17,16,42,14.90
2012,05,17,16,43,14.80
2012,05,17,16,44,14.90
2012,05,17,16,45,14.90
2012,05,17,16,46,14.80
2012,05,17,16,47,14.60
2012,05,17,16,48,14.60
2012,05,17,16,49,14.60
2012,05,17,16,50,14.60
2012,05,17,16,51,14.60
2012,05,17,16,52,14.60
2012,05,17,16,53,14.60
2012,05,17,16,54,14.60
2012,05,17,16,55,14.70
2012,05,17,16,56,14.70
2012,05,17,16,57,14.60
2012,05,17,16,58,14.60
2012,05,17,16,59,14.70
2012,05,17,17,00,14.80
2012,05,17,17,01,14.80
2012,05,17,17,02,14.80
2012,05,17,17,03,14.80
2012,05,17,17,04,14.90
2012,05,17,17,05,14.90
2012,05,17,17,06,14.80
2012,05,17,17,07,14.70
2012,05,17,17,08,14.70
2012,05,17,17,09,14.70
2012,05,17,17,10,14.80
2012,05,17,17,11,14.90
2012,05,17,17,12,15.00
2012,05,17,17,13,15.10
2012,05,17,17,14,15.10
2012,05,17,17,15,15.20
2012,05,17,17,16,15.30
2012,05,17,17,17,15.40
2012,05,17,17,18,15.30
2012,05,17,17,19,15.10
2012,05,17,17,20,15.10
2012,05,17,17,21,15.20
2012,05,17,17,22,15.20
2012,05,17,17,23,15.30
2012,05,17,17,24,15.40
2012,05,17,17,25,15.50
2012,05,17,17,26,15.70
2012,05,17,17,27,15.80
2012,05,17,17,28,15.90
2012,05,17,17,29,16.10
2012,05,17,17,30,16.10
2012,05,17,17,31,16.10
2012,05,17,17,32,16.10
2012,05,17,17,33,16.20
2012,05,17,17,34,16.10
2012,05,17,17,35,16.10
2012,05,17,17,36,16.10
2012,05,17,17,37,15.90
2012,05,17,17,38,15.80
2012,05,17,17,39,15.60